Weather History for Wichita, KS

Change the Weather History Date:

Wednesday, January 16, 2013

  Actual Average Record
Temperature  
Mean Temperature 34 °F 32 °F  
Max Temperature 52 °F 42 °F 72 °F (1894)
Min Temperature 15 °F 22 °F -5 °F (1930)
Degree Days  
Heating Degree Days 31 33  
Month to date heating degree days 509 528  
Since 1 July heating degree days 2073 2371  
Cooling Degree Days 0 0  
Month to date cooling degree days 0 0  
Year to date cooling degree days 0 0  
Moisture  
Dew Point 21 °F    
Average Humidity 63    
Maximum Humidity 84    
Minimum Humidity 41    
Precipitation  
Precipitation 0.00 in 0.03 in 0.62 in (1990)
Month to date precipitation 0.53 0.38  
Year to date precipitation 0.53 0.38  
Snow  
Snow 0.00 in 0.10 in 3.50 in (1987)
Month to date snowfall 0.7 1.7  
Since 1 July snowfall 3.2 7.3  
Snow Depth 0.00 in    
Sea Level Pressure  
Sea Level Pressure 30.17 in    
Wind  
Wind Speed 6 mph (SW)    
Max Wind Speed 14 mph    
Max Gust Speed 16 mph    
Visibility 10 miles    
Events      
T = Trace of Precipitation, MM = Missing Value Source: NWS Daily Summary

Daily Weather History Graph

Daily Weather History Graph

Search for Another Location

Airport:

Trip Planner

Search our weather history database for the weather conditions in past years. The results will help you decide how hot, cold, wet, or windy it might be!

Date:

Astronomy

Jan. 16, 2013 Rise Set
Actual Time 7:43 AM CST 5:36 PM CST
Civil Twilight 7:14 AM CST 6:04 PM CST
Nautical Twilight 6:42 AM CST 6:37 PM CST
Astronomical Twilight 6:11 AM CST 7:08 PM CST
Moon 10:27 AM CST 11:21 PM CST
Length of Visible Light 10h 50m
Length of Day
9h 53m
Waxing Crescent, 28% of the Moon is Illuminated
Jan 16
Waxing Crescent
Jan 18
First Quarter
Jan 26
Full
Feb 3
Last Quarter
Feb 10
New

Hourly Weather History & Observations

Time (CST) Temp. Windchill Dew Point Humidity Pressure Visibility Wind Dir Wind Speed Gust Speed Precip Events Conditions
12:53 AM 19.9 °F 12.1 °F 12.0 °F 71% 30.22 in 10.0 mi SW 5.8 mph - N/A   Clear
1:53 AM 19.0 °F 12.3 °F 10.9 °F 71% 30.21 in 10.0 mi SSW 4.6 mph - N/A   Clear
2:53 AM 18.0 °F 9.8 °F 10.0 °F 71% 30.20 in 10.0 mi SW 5.8 mph - N/A   Clear
3:53 AM 18.0 °F 11.1 °F 10.9 °F 74% 30.18 in 10.0 mi South 4.6 mph - N/A   Clear
4:53 AM 16.0 °F 7.4 °F 9.0 °F 74% 30.17 in 10.0 mi South 5.8 mph - N/A   Clear
5:53 AM 17.1 °F 7.6 °F 10.9 °F 77% 30.14 in 10.0 mi SSW 6.9 mph - N/A   Clear
6:53 AM 17.1 °F 7.6 °F 12.0 °F 81% 30.15 in 10.0 mi SW 6.9 mph - N/A   Partly Cloudy
7:53 AM 18.0 °F 12.7 °F 12.9 °F 81% 30.17 in 10.0 mi SSW 3.5 mph - N/A   Partly Cloudy
8:53 AM 21.9 °F 14.5 °F 17.1 °F 82% 30.18 in 10.0 mi SSW 5.8 mph - N/A   Partly Cloudy
9:53 AM 28.0 °F 20.8 °F 19.0 °F 69% 30.19 in 10.0 mi WSW 6.9 mph - N/A   Scattered Clouds
10:53 AM 33.1 °F 26.9 °F 21.0 °F 61% 30.17 in 10.0 mi SSW 6.9 mph - N/A   Mostly Cloudy
11:53 AM 37.9 °F 32.7 °F 23.0 °F 55% 30.16 in 10.0 mi SW 6.9 mph - N/A   Mostly Cloudy
12:53 PM 42.8 °F 38.6 °F 24.8 °F 49% 30.09 in 10.0 mi SW 6.9 mph - N/A   Scattered Clouds
1:53 PM 46.9 °F - 27.0 °F 46% 30.11 in 10.0 mi SW 8.1 mph - N/A   Partly Cloudy
2:53 PM 50.0 °F - 28.9 °F 44% 30.10 in 10.0 mi WSW 6.9 mph - N/A   Partly Cloudy
3:53 PM 52.0 °F - 28.9 °F 41% 30.10 in 10.0 mi Calm Calm - N/A   Clear
4:53 PM 50.0 °F - 28.9 °F 44% 30.12 in 10.0 mi SW 4.6 mph - N/A   Clear
5:53 PM 39.9 °F 35.8 °F 27.0 °F 60% 30.15 in 10.0 mi South 5.8 mph - N/A   Clear
6:53 PM 36.0 °F 30.3 °F 27.0 °F 70% 30.17 in 10.0 mi SW 6.9 mph - N/A   Clear
7:53 PM 39.0 °F 36.8 °F 28.0 °F 65% 30.19 in 10.0 mi WNW 3.5 mph - N/A   Clear
8:53 PM 33.1 °F 27.7 °F 26.1 °F 75% 30.22 in 10.0 mi WNW 5.8 mph - N/A   Clear
9:53 PM 32.0 °F 24.8 °F 26.1 °F 79% 30.22 in 10.0 mi NW 8.1 mph - N/A   Clear
10:53 PM 34.0 °F 26.6 °F 27.0 °F 75% 30.24 in 10.0 mi NW 9.2 mph - N/A   Clear
11:53 PM 37.0 °F 28.5 °F 27.0 °F 67% 30.26 in 10.0 mi NNW 13.8 mph - N/A   Clear